Regional Weather Roundup
Issued by NWS Grand Forks, ND

Home | Current Version | Previous Version | Text Only | Print | Product List | Glossary Off
Versions: 1 2 3 4 5 6 7 8 9 10 11 12 13 14 15 16 17 18 19 20 21 22 23 24 25 26 27 28 29 30 31 32 33 34 35 36 37 38 39 40 41 42 43 44 45 46 47 48 49 50

000
ASUS43 KFGF 241131
RWRFGF
PRAIRIE TO PINES  WEATHER ROUNDUP
NATIONAL WEATHER SERVICE EASTERN NORTH DAKOTA/GRAND FORKS ND
600 AM CDT FRI OCT 24 2014

 **SATELLITE DATA USED TO AUGMENT SKY COVER AT AUTOMATED STATIONS**
 *****  WEATHER ACROSS EASTERN NORTH DAKOTA  *****

CITY           SKY/WX    TMP DP  RH WIND       PRES   REMARKS
GRAND FORKS    PTCLDY    40  35  83 S7        29.74S
GRAND FRKS AFB PTCLDY    47  37  69 W6        29.75R
GRAND FRKS NWS   N/A     41 N/A N/A S7          N/A
DEVILS LAKE    CLEAR     48  36  61 SW9       29.74F
FARGO          MOCLDY    47  41  80 S6        29.79S
WAHPETON ARPT  CLOUDY    41  36  81 SE5       29.82R
$$

 ***** WEATHER ACROSS CENTRAL AND WESTERN NORTH DAKOTA  *****

CITY           SKY/WX    TMP DP  RH WIND       PRES   REMARKS
BISMARCK       CLOUDY    41  32  70 CALM      29.83R
MINOT          PTCLDY    48  34  58 SW10      29.75S
JAMESTOWN      CLOUDY    41  35  79 SW3       29.80R
MINOT AFB      PTCLDY    48  37  64 SW9       29.74S
GARRISON         N/A     44  38  79 CALM      29.79R
WILLISTON      CLEAR     42  35  76 CALM      29.81R
DICKINSON      MOCLDY    40  31  70 SW5       29.83R
HETTINGER      CLOUDY    43  28  55 CALM      29.88R
$$

 *****  OTHER AIRPORT OBSERVATIONS IN OUR AREA  *****

CITY           SKY/WX    TMP DP  RH WIND       PRES   REMARKS
WALHALLA       FAIR      48  36  61 CALM      29.70F
GRAFTON AIRPOR FAIR      45  39  81 SW6       29.73S
VALLEY CITY AR FAIR      37  37 100 S6        29.79F
CANDO          FAIR      37  34  87 SW6       29.76R
CAVALIER APRT  FAIR      48  37  66 SW7       29.71F
GWINNER        SUNNY     46  45  93 SW10      29.81F
ROLLA          FAIR      45  36  70 S6        29.73F
 ***** THE ABOVE OBSERVATIONS ARE NON NWS ARE NOT QUALITY
       CONTROLLED AND MAY MIS-REPORT RAIN FOR SNOW...
$$

  *****  WEATHER ACROSS NORTHERN MINNESOTA  *****

CITY           SKY/WX    TMP DP  RH WIND       PRES   REMARKS
FLAG ISLAND    CLOUDY    50  46  87 SE7       29.69F
WARROAD        CLOUDY    50  43  76 SW8       29.73R
ROSEAU         CLOUDY    46  41  81 S8        29.72S
HALLOCK        CLOUDY    43  37  81 S8        29.71F
THF RVR FALLS  CLOUDY    48  39  71 S10       29.76S
BAUDETTE       CLOUDY    51  41  68 SW6       29.73S
WASKISH        CLOUDY    55  45  67 CALM      29.75S
CROOKSTON      PTCLDY    45  41  87 S8        29.77F
STEPHEN NDAWN    N/A     46  37  71 S3          N/A
GREENBUSH NDAW   N/A     48  39  71 S7          N/A
$$
  *****  WEATHER ACROSS CENTRAL AND WEST MINNESOTA  *****

CITY           SKY/WX    TMP DP  RH WIND       PRES   REMARKS
FOSSTON        CLOUDY    48  41  76 S8        29.79R
BEMIDJI        CLOUDY    51  42  71 S7        29.79S
PARK RAPIDS    CLOUDY    47  41  80 SE6       29.82F
ELBOW LAKE     FAIR      46  43  90 SE7       29.83S
WADENA         CLOUDY    43  39  87 SE3       29.82F
DETROIT LAKES  CLOUDY    46  43  87 S5        29.83R
MOORHEAD       MOCLDY    45  45 100 S9        29.80F
FERGUS FALLS   CLOUDY    46  39  76 SE8       29.83F
MORRIS MN      CLOUDY    45  43  93 SE6       29.82S
STAPLES        CLOUDY    46  41  81 SE3       29.83F
$$
  *****  WEATHER ELSEWHERE ACROSS MINNESOTA  *****

CITY           SKY/WX    TMP DP  RH WIND       PRES   REMARKS
DULUTH         CLOUDY    48  45  89 S8        29.88F FOG
INTRNTL FALLS  CLOUDY    53  42  66 S5        29.75F
ELY            MOCLDY    48  43  81 S7        29.84S
CLOQUET        CLOUDY    46  45  93 S5        29.88S FOG
WHEATON        CLOUDY    37  37 100 SE7       29.84S
BRAINERD       CLOUDY    49  41  74 S8        29.85F
HIBBING        CLOUDY    38  35  89 CALM      29.85F
ALEXANDRIA     CLOUDY    48  43  82 SE3       29.85S
SAINT CLOUD    CLOUDY    50  41  71 SE8       29.87F
MINNEAPOLIS    MOCLDY    46  44  93 E7        29.92F
$$

  *****  WEATHER ACROSS SOUTH DAKOTA  *****

CITY           SKY/WX    TMP DP  RH WIND       PRES   REMARKS
SIOUX FALLS    MOCLDY    53  51  93 SW3       29.84S
BROOKINGS      NOT AVBL
WATERTOWN      MOCLDY    42  41  96 S6        29.83F
HURON          MOCLDY    37  37 100 W6        29.84R FOG
SISSETON         N/A     41  40  96 SE5       29.81S
ABERDEEN       MOCLDY    34  33  96 SW3       29.84R FOG
MITCHELL       MOCLDY    47  41  80 W9        29.86R
PIERRE         CLOUDY    43  35  73 CALM      29.86R
MOBRIDGE       CLOUDY    42  38  85 SE5       29.83S
RAPID CITY     MOCLDY    45  32  60 CALM      29.91R
$$

  *****  SOME WEATHER IN NEARBY STATES *****

CITY           SKY/WX    TMP DP  RH WIND       PRES   REMARKS
GLASGOW MT     CLEAR     49  39  68 W10       29.83R
GREAT FALLS MT PTCLDY    47  36  65 SW13      29.95R
CHEYENNE WY    CLOUDY    54  26  34 NW3       30.16R
SCOTTSBLUFF NE CLOUDY    46  37  71 NW7       30.02R
OMAHA NE       MOCLDY    57  55  93 S12       29.95S FOG
DES MOINES IA  FOG       57  56  96 S7        29.99F VSB 1/8
DAVENPORT IA   FOG       49  47  93 CALM      30.06S VSB 1/4
CHICAGO IL     CLOUDY    53  45  74 SW3       30.05S
EAU CLAIRE WI  CLOUDY    49  48  97 S6        29.98F
LA CROSSE WI   CLOUDY    51  50  96 S7        30.00F FOG
$$

  *****  SOME NATIONAL WEATHER *****

CITY           SKY/WX    TMP DP  RH WIND       PRES   REMARKS
LA GUARDIA NY  MOCLDY    52  43  71 NW14      29.80R
RALEIGH NC     MOCLDY    44  40  85 CALM      30.02S
ATLANTA GA     CLOUDY    51  44  77 NE5       30.05S
NEW ORLEANS LA PTCLDY    60  50  69 NE7       30.09R
OKLAHOMA CITY  PTCLDY    57  54  89 S7        30.08F
ALBUQUERQUE NM CLEAR     55  34  45 NW3       30.28R
SALT LAKE CITY PTCLDY    45  40  82 CALM      30.11R
LOS ANGELES CA PTCLDY    61  61 100 CALM      29.95F
BOISE ID       LGT RAIN  51  49  92 SW5       30.07F
SEATTLE WA     CLOUDY    49  46  90 E7        30.04S
$$

*** WEATHER ACROSS MANITOBA...SASKATCHEWAN AND ONTARIO ***
                ***ONTARIO***

CITY           SKY/WX    TMP DP  RH WIND       PRES   REMARKS
GERALDTON      FOG      N/A N/A N/A S8          N/A  VSB 3/4
THUNDER BAY    CLOUDY    48  46  93 S6        29.88F
SIOUX LOOKOUT  MOCLDY    46  45  93 S8        29.74F
TORONTO        PTCLDY    37  34  87 NW8       30.05S
BIG TROUT LK   CLOUDY    46  45  93 SW5       29.66F
PICKLE LAKE    PTCLDY    43  41  93 S8        29.72
DRYDEN         CLOUDY    48  41  76 S8        29.74S
KENORA         CLOUDY    48  39  71 S8        29.71F
$$
                *** MANITOBA***

CITY           SKY/WX    TMP DP  RH WIND       PRES   REMARKS
BRANDON        MOCLDY    39  36  87 SW8       29.68S
DAUPHIN        CLOUDY    50  41  71 W8        29.59F
ISLAND LAKE    CLOUDY   N/A N/A N/A SE5         N/A
PILOT MOUND      N/A     37  32  81 S6          N/A
THE PAS        FOG       41  41 100 S7        29.47F VSB 1/2
THOMPSON       DRZL/FOG N/A N/A N/A SE5         N/A  VSB 1/2
WINNIPEG       CLOUDY    48  37  66 SW9       29.67F
LYNN LAKE      FOG       36  36 100 SE7       29.45F VSB 1
CHURCHILL      LGT RAIN  37  37 100 E24G32    29.58F FOG
GILLAM         CLOUDY    37  37 100 SW6       29.56F FOG
$$
                ***SASKATCHEWAN***

CITY           SKY/WX    TMP DP  RH WIND       PRES   REMARKS
ESTEVAN        MOCLDY    52  39  62 SW12      29.74R
KINDERSLEY     MOCLDY    41  36  81 NW8       29.65R
LLOYDMINSTER   MOCLDY    39  30  70 W22G30    29.60R
PRINCE ALBERT  MOCLDY    39  36  87 W3        29.52S
REGINA         MOCLDY    48  41  76 S8        29.66F
YORKTON        CLOUDY    50  41  71 SW12G17   29.60S
N. BATTLEFORD  MOCLDY    39  32  75 W12       29.61R
LA RONGE       CLEAR     41  37  87 SW3       29.44S
SASKATOON      MOCLDY    39  36  87 SW7       29.58R
SWIFT CURRENT  CLEAR     48  36  61 SW25G31   29.69R
$$
NOTE: THESE ARE AUTOMATED STATIONS WITH LIMITED QUALITY CONTROL
      "FAIR" INDICATES FEW OR NO CLOUDS BELOW 12,000 FEET WITH NO
      SIGNIFICANT WEATHER AND/OR OBSTRUCTIONS TO VISIBILITY.
      SKY/WX - SKY CONDITION AND SIGNIFICANT WEATHER.
      TMP - AIR TEMPERATURE.    DP   - DEWPOINT TEMPERATURE.
      RH  - RELATIVE HUMIDITY.  PRES - PRESSURE.
      HX  - HEAT INDEX.         WCI  - WIND CHILL INDEX.
$



USA.gov is the U.S. government's official web portal to all federal, state and local government web resources and services.